DO1AA Weather Reports


time (UTC)temp
C
wind
direction
speed
KPH
gust
KPH
rain 1hr
cm
rain 24hr
cm
rain mn
cm
humidity
%
barometer
mb
20260506151003 15 9 6.4 12.9 0.00 1.93 1.85 83 993.5
20260506150004 15 41 4.8 12.9 0.00 1.93 1.85 84 993.4
20260506144004 14 4 4.8 12.9 0.00 1.93 1.85 84 993.6
20260506143005 15 5 3.2 17.7 0.00 1.93 1.85 82 993.5
20260506142003 14 6 4.8 14.5 0.00 1.93 1.85 86 993.6
20260506141004 15 316 4.8 12.9 0.00 1.93 1.85 84 993.4
20260506140003 15 343 3.2 11.3 0.00 1.93 1.85 85 993.5
20260506134003 15 11 3.2 6.4 0.00 1.93 1.85 85 993.5
20260506133004 15 33 4.8 11.3 0.00 1.93 1.85 87 993.6
20260506132002 14 35 3.2 11.3 0.00 1.93 1.85 89 993.6
20260506131003 14 31 3.2 9.7 0.00 1.93 1.85 92 993.4
20260506130004 13 56 3.2 6.4 0.00 1.93 1.85 92 993.8
20260506125004 14 348 1.6 6.4 0.03 1.93 1.85 91 993.7
20260506123004 13 328 4.8 6.4 0.05 1.93 1.85 93 993.5
20260506122004 14 322 1.6 9.7 0.05 1.93 1.85 97 993.5
20260506121003 13 332 3.2 6.4 0.05 1.93 1.85 97 993.6
20260506120005 13 319 1.6 6.4 0.05 1.93 1.85 97 993.6
20260506115003 13 0 0.0 3.2 0.03 1.88 1.83 96 993.7
20260506114003 13 0 0.0 3.2 0.00 1.85 1.80 95 993.6
20260506113004 13 50 1.6 6.4 0.00 1.85 1.80 95 993.9
20260506112003 13 56 4.8 6.4 0.00 1.85 1.80 93 993.8
20260506111004 14 70 3.2 3.2 0.00 1.85 1.80 89 993.7
20260506110005 14 9 1.6 6.4 0.00 1.85 1.80 88 993.5
20260506105003 15 339 3.2 6.4 0.00 1.85 1.80 86 993.5
20260506104003 15 316 1.6 6.4 0.00 1.85 1.80 85 993.4
20260506103004 15 278 3.2 6.4 0.00 1.85 1.80 84 993.2
20260506102003 15 279 3.2 6.4 0.00 1.85 1.80 83 993.4
20260506101004 15 252 1.6 6.4 0.00 1.85 1.80 87 993.3
20260506100004 15 297 1.6 6.4 0.00 1.85 1.80 86 993.0
20260506095003 15 256 1.6 3.2 0.00 1.85 1.80 88 993.0
20260506094003 15 221 1.6 3.2 0.00 1.85 1.80 89 993.1
20260506093003 15 0 0.0 6.4 0.00 1.85 1.80 90 993.0
20260506091003 13 25 3.2 6.4 0.00 1.85 1.80 96 992.8
20260506090004 13 0 0.0 6.4 0.00 1.85 1.80 99 992.6
20260506085004 12 311 1.6 6.4 0.00 1.85 1.80 99 992.7
20260506084003 12 353 1.6 3.2 0.03 1.85 1.80 99 992.7
20260506082004 12 293 3.2 3.2 0.03 1.85 1.80 99 992.7
20260506073003 12 264 1.6 6.4 0.05 1.83 1.78 99 992.4
20260506072003 11 331 1.6 6.4 0.13 1.83 1.78 99 992.1
20260506062003 11 0 0.0 6.4 0.03 1.78 1.65 99 992.1
20260506051004 11 306 3.2 6.4 0.15 1.75 1.60 99 991.6
20260506045003 11 324 1.6 9.7 0.18 1.75 1.60 99 991.8
20260506044003 11 324 3.2 6.4 0.15 1.70 1.55 99 991.6
20260506043004 11 323 1.6 6.4 0.18 1.65 1.50 99 991.6
20260506042003 11 324 1.6 6.4 0.18 1.63 1.47 99 991.6
20260506041004 11 339 3.2 6.4 0.18 1.60 1.45 99 991.7
20260506040004 11 344 3.2 6.4 0.15 1.55 1.42 99 991.8
20260506035005 11 335 1.6 6.4 0.15 1.55 1.42 99 991.8
20260506034003 11 0 0.0 6.4 0.15 1.55 1.42 99 991.8
20260506033005 11 344 3.2 9.7 0.10 1.47 1.32 99 991.7
20260506032003 11 0 0.0 11.3 0.10 1.45 1.30 99 992.0
20260506031003 11 355 1.6 6.4 0.05 1.42 1.27 99 991.9
20260506030004 11 357 3.2 6.4 0.10 1.42 1.27 99 992.1
20260506024003 11 2 1.6 6.4 0.18 1.42 1.27 99 992.3
20260506023005 11 7 1.6 6.4 0.18 1.37 1.22 99 992.5
20260506022007 11 0 0.0 6.4 0.20 1.35 1.19 99 992.5
20260506021004 12 32 1.6 9.7 0.33 1.35 1.19 99 992.4
20260506020006 12 3 3.2 6.4 0.36 1.32 1.17 99 992.6
20260506015003 12 40 1.6 6.4 0.36 1.27 1.12 99 992.8
20260506013005 12 47 4.8 11.3 0.43 1.19 1.04 99 992.7
20260506012003 12 60 3.2 6.4 0.43 1.14 0.99 99 992.8
20260506011004 12 47 3.2 6.4 0.36 1.02 0.86 99 993.0
20260506010004 12 41 3.2 6.4 0.38 0.97 0.81 99 993.0
20260506005003 12 30 4.8 12.9 0.36 0.89 0.76 99 993.0
20260506004003 12 33 4.8 12.9 0.38 0.84 0.69 99 993.2
20260506003004 12 25 3.2 12.9 0.33 0.76 0.61 99 993.3
20260506002003 12 42 3.2 6.4 0.30 0.71 0.56 99 993.1
20260506001005 12 51 3.2 6.4 0.28 0.64 0.48 99 993.2
20260506000004 13 56 3.2 6.4 0.28 0.56 0.43 99 993.3
20260505235003 13 39 1.6 9.7 0.28 0.53 0.38 99 993.6
20260505234006 13 46 3.2 9.7 0.20 0.46 0.30 99 993.5
20260505232004 13 53 3.2 6.4 0.23 0.43 0.28 99 993.7
20260505231006 13 0 0.0 3.2 0.20 0.36 0.20 99 994.0
20260505225003 13 359 3.2 3.2 0.15 0.28 0.13 99 994.0
20260505224004 13 354 1.6 6.4 0.15 0.23 0.10 99 994.3
20260505223006 13 53 3.2 6.4 0.10 0.18 0.03 99 994.2
20260505222003 13 34 1.6 6.4 0.10 0.18 0.03 99 994.3
20260505221004 13 0 0.0 6.4 0.05 0.15 0.00 99 994.5
20260505220005 13 0 0.0 6.4 0.05 0.15 0.00 98 994.5
20260505215003 13 40 1.6 6.4 0.03 0.13 0.13 98 994.5
20260505214003 13 354 3.2 9.7 0.00 0.10 0.10 97 994.4
20260505213004 13 335 6.4 12.9 0.00 0.10 0.10 96 994.1
20260505212004 13 353 6.4 12.9 0.00 0.10 0.10 95 994.2
20260505211004 13 342 3.2 12.9 0.00 0.10 0.10 94 994.2
20260505210004 14 325 3.2 14.5 0.00 0.10 0.10 93 994.1
20260505205003 14 346 3.2 12.9 0.00 0.10 0.10 92 994.1
20260505204003 14 342 3.2 11.3 0.00 0.10 0.10 91 994.3
20260505203004 14 339 4.8 17.7 0.00 0.10 0.10 91 994.0
20260505202003 15 352 4.8 14.5 0.00 0.10 0.10 91 994.2
20260505201004 15 255 3.2 11.3 0.00 0.10 0.10 90 994.2
20260505200004 15 323 1.6 11.3 0.00 0.10 0.10 89 994.0
20260505195003 15 347 3.2 12.9 0.00 0.10 0.10 89 994.2
20260505194004 15 0 0.0 9.7 0.00 0.10 0.10 88 994.2
20260505193004 16 312 1.6 11.3 0.00 0.10 0.10 87 994.2
20260505192004 16 296 1.6 6.4 0.00 0.10 0.10 87 994.3
20260505191003 16 341 3.2 6.4 0.00 0.10 0.10 86 994.3
20260505190004 16 304 1.6 6.4 0.00 0.10 0.10 86 994.3
20260505185003 16 326 3.2 6.4 0.00 0.10 0.10 85 994.4
20260505184006 16 324 3.2 6.4 0.00 0.10 0.10 84 994.4
20260505183004 16 337 3.2 9.7 0.00 0.10 0.10 84 994.6
20260505182003 16 322 3.2 6.4 0.00 0.10 0.10 83 994.4
20260505181003 16 337 1.6 6.4 0.00 0.10 0.10 83 994.4
20260505180004 16 344 1.6 6.4 0.00 0.10 0.10 82 994.5
20260505175004 17 344 1.6 6.4 0.00 0.10 0.10 82 994.4
20260505174003 17 342 3.2 12.9 0.00 0.10 0.10 81 994.7
20260505173004 17 328 1.6 11.3 0.00 0.10 0.10 80 994.3
20260505172004 17 352 1.6 11.3 0.00 0.10 0.10 80 994.3
20260505171003 17 292 3.2 12.9 0.00 0.10 0.10 79 994.5
20260505170004 18 307 4.8 14.5 0.00 0.10 0.10 77 994.7
20260505165003 18 322 1.6 6.4 0.00 0.10 0.10 73 994.6
20260505163004 19 289 3.2 3.2 0.00 0.10 0.10 69 994.5
20260505162003 19 0 0.0 6.4 0.00 0.10 0.10 68 994.6
20260505161003 19 351 1.6 6.4 0.00 0.10 0.10 68 994.7
20260505153004 19 39 3.2 6.4 0.00 0.10 0.10 66 995.2
20260505152004 19 39 1.6 6.4 0.00 0.10 0.10 66 995.2